Temperature
14 15 15 16 16 16 18 21 22 22 22 22 22 22 22 22 21 18 16 16 17 17 17 17 17 16 16 17 17 17 17 17 17 17 17 17 17 17 17 17 16 16 16 16 16 16 16 16 15
14 14 15 16 16 17 19 20 21 21 20 20 21 21 21 21 19 17 16 16 16 17 17 17 16 16 16 16 17 17 17 17 17 17 17 17 17 17 17 16 16 16 16 16 15 15 15 15 15
14 14 16 16 17 18 20 21 21 20 20 20 20 20 20 19 17 16 16 16 16 16 16 16 16 16 16 16 16 16 17 17 17 17 17 17 17 17 16 16 16 16 16 15 15 15 15 15 16
13 14 16 16 17 19 20 19 19 20 19 19 20 20 18 17 16 15 15 16 16 16 16 16 16 16 16 16 16 16 16 16 16 16 16 16 16 16 16 16 16 16 16 15 15 15 15 16 16
13 15 15 16 17 19 19 19 19 19 19 19 19 19 17 16 15 15 15 16 16 16 16 16 16 16 16 16 16 16 16 16 16 16 16 16 16 16 16 16 16 16 16 15 15 15 15 16 16
14 15 15 16 17 19 19 18 19 19 19 19 18 18 16 15 15 15 15 15 15 15 16 16 16 16 16 16 16 16 16 16 16 16 16 16 16 16 16 16 16 16 16 15 15 15 16 16 16
14 14 15 17 18 18 18 18 18 18 18 18 18 18 16 15 15 15 15 15 15 15 15 15 15 16 16 16 16 16 16 16 16 16 16 16 16 16 16 16 15 15 15 15 15 15 16 16 15
14 14 16 17 17 17 17 17 17 17 17 17 17 17 15 14 14 14 14 14 15 15 15 15 15 15 15 15 16 16 16 16 16 16 16 16 15 15 15 15 15 15 15 15 15 15 15 15 15
13 13 14 16 17 16 16 16 16 15 15 16 15 15 14 14 14 14 14 14 14 14 15 15 15 15 15 15 15 15 16 16 16 16 16 16 15 15 15 15 15 15 15 15 15 15 15 15 15
13 12 14 15 15 15 15 15 15 15 15 15 15 14 14 14 13 13 13 14 14 14 14 14 15 15 15 15 15 15 15 15 16 15 15 15 15 15 15 15 15 15 15 15 15 15 15 15 15
13 13 14 14 13 14 14 14 14 14 14 15 14 14 13 13 13 13 13 13 13 13 14 14 14 15 15 15 15 15 15 15 15 15 15 15 15 15 15 15 15 15 15 15 15 15 15 15 15
13 13 13 13 12 13 13 13 13 13 13 13 13 13 12 12 12 12 12 12 12 13 13 14 14 14 14 14 14 15 15 15 15 15 15 15 15 15 15 15 15 15 15 15 15 15 15 15 15
12 12 12 11 11 11 12 12 12 13 13 13 12 12 12 12 12 12 11 11 12 12 12 13 13 14 14 14 14 14 14 14 15 15 15 15 15 15 15 15 15 15 15 15 15 15 15 15 14
12 12 11 11 11 11 12 12 12 12 12 12 12 12 12 11 11 11 11 11 11 11 11 12 12 13 13 14 14 14 14 14 14 14 14 14 14 14 14 14 14 15 15 15 15 15 14 14 14
11 11 11 11 11 11 11 11 12 12 12 12 12 12 12 11 11 11 11 10 10 11 11 11 12 12 12 13 13 13 13 14 14 14 14 14 14 14 14 14 14 14 15 14 14 14 14 14 14
11 10 10 11 12 11 10 11 12 12 12 12 12 12 12 11 11 11 10 10 10 10 11 11 11 11 12 12 12 13 13 13 13 13 14 14 14 14 14 14 14 14 14 14 14 14 14 14 14
10 10 11 11 11 11 11 11 12 12 12 12 12 12 11 11 11 10 10 10 10 10 10 10 11 11 11 11 12 12 12 13 13 13 13 13 13 13 13 14 14 14 14 14 14 14 14 14 14
9 11 11 11 11 11 11 11 12 12 12 12 12 11 11 10 10 10 9 9 9 9 9 10 10 10 11 11 11 11 12 12 12 12 13 13 13 13 13 13 13 13 13 13 14 14 13 13 13
10 11 11 11 11 11 10 11 12 12 12 11 11 10 10 10 9 9 9 8 8 9 9 9 9 10 10 10 10 11 11 11 12 12 12 12 12 13 13 13 13 13 13 13 13 13 13 13 13
10 10 10 10 11 11 10 10 11 12 11 11 10 10 9 9 8 8 8 8 8 8 8 8 9 9 9 9 9 10 10 10 11 11 11 12 12 12 12 12 13 13 13 13 13 13 13 13 12
10 9 9 9 10 10 10 10 11 11 11 10 10 9 9 8 8 7 7 7 7 7 8 8 8 8 9 9 9 9 9 10 10 10 11 11 12 12 12 12 12 12 12 12 13 13 12 12 12
9 10 10 9 8 9 10 8 10 10 10 10 10 9 8 7 7 7 6 6 7 7 7 7 8 8 8 8 8 8 8 9 9 9 10 11 11 11 11 11 12 12 12 12 12 12 12 12 12
9 9 9 9 8 8 9 8 9 10 9 9 9 8 7 7 6 6 6 6 6 6 7 7 7 7 8 7 8 8 8 8 8 9 9 10 10 11 11 11 11 11 11 11 12 12 12 12 12
9 9 9 9 8 8 9 8 8 9 9 9 9 8 7 6 6 5 5 5 6 6 6 6 7 7 7 7 7 7 7 8 8 8 9 9 10 10 10 10 10 11 11 11 11 11 11 11 11
8 8 8 8 7 8 10 9 8 9 9 8 8 7 7 6 5 5 5 5 5 5 6 6 6 6 7 7 7 7 7 7 7 8 8 8 9 9 9 10 10 10 10 11 11 11 11 11 11
9 8 7 8 8 9 9 8 8 9 9 8 7 7 6 6 5 5 4 4 4 5 5 6 6 6 6 6 6 6 7 7 7 7 7 8 8 8 9 9 9 9 10 10 10 10 11 11 11
9 8 9 8 8 8 9 9 9 9 8 8 7 7 6 6 5 5 4 4 4 4 4 5 5 5 5 6 6 6 6 6 6 7 7 7 7 8 8 8 9 9 9 9 9 10 10 10 10
9 9 8 7 8 8 9 9 8 7 7 8 7 7 6 6 5 4 4 4 4 4 4 4 4 4 5 5 5 5 6 6 6 6 6 6 7 7 7 8 8 8 8 8 9 9 9 9 9
8 8 8 8 8 8 8 8 9 8 8 8 7 7 6 5 5 4 4 4 4 4 4 4 4 4 4 4 5 5 5 5 5 6 6 6 6 7 7 7 7 7 7 8 8 8 8 8 8
9 9 8 7 8 8 7 7 9 8 8 8 8 7 6 6 5 4 4 4 4 3 3 3 4 4 4 4 4 4 4 5 5 5 5 5 6 6 6 6 6 7 7 7 7 7 7 7 8
Wind_Speed
10 12 8 3 4 5 8 6 3 2 3 6 7 4 4 5 5 7 4 9 8 4 6 11 10 9 10 10 10 12 13 13 12 12 11 11 10 10 10 10 10 10 10 10 10 10 12 12 12
11 8 6 4 5 7 6 8 4 4 6 6 4 4 3 5 7 7 6 8 8 5 6 8 9 9 9 9 10 11 12 13 13 12 12 11 10 10 10 10 10 10 10 11 11 11 12 12 12
10 8 4 4 5 6 3 3 6 8 8 3 1 1 3 5 6 5 7 9 8 6 6 8 10 8 9 9 9 11 11 12 12 12 12 11 11 10 10 10 10 9 10 11 11 12 12 12 11
5 4 4 6 10 5 1 6 7 6 6 2 1 2 4 7 5 6 8 9 8 7 7 7 8 8 8 8 9 10 11 12 12 12 12 12 11 11 10 10 10 10 11 12 12 12 12 12 10
5 4 6 8 10 5 2 7 3 3 5 4 1 1 5 6 9 9 8 8 8 7 7 5 6 7 8 8 9 10 10 11 11 12 13 12 12 12 11 11 12 12 12 12 12 12 12 11 10
4 4 6 9 9 5 3 5 1 1 4 4 1 0 4 8 9 7 8 8 7 6 6 4 2 5 7 8 9 10 10 10 11 12 13 13 13 12 12 13 13 13 13 12 12 13 12 11 10
5 4 7 8 7 6 5 4 2 2 2 3 1 0 4 8 7 6 7 7 7 6 5 4 2 1 4 8 9 10 11 11 11 12 13 13 13 13 13 13 14 14 14 14 13 13 12 11 10
5 4 6 7 6 3 5 4 4 4 3 4 3 1 3 5 6 6 6 5 5 6 5 4 4 3 1 4 8 10 11 12 12 12 13 13 14 14 14 14 15 15 15 15 14 14 13 12 10
4 4 5 4 2 5 6 3 4 2 2 2 2 2 3 5 6 6 5 5 5 6 5 4 4 3 3 4 7 9 11 12 13 12 14 13 13 13 14 15 16 17 16 16 16 15 14 12 11
3 4 2 4 6 6 6 4 3 1 2 2 1 1 3 4 5 5 5 6 6 6 6 4 4 4 4 4 4 6 8 10 11 11 12 13 13 13 14 17 19 19 18 17 16 15 14 12 10
4 3 2 5 8 6 4 3 2 2 2 1 2 4 5 5 5 5 5 5 5 5 5 5 4 5 4 3 4 4 5 7 10 12 13 13 12 11 11 11 14 15 15 14 14 14 12 12 11
4 1 2 4 5 3 2 2 2 3 2 4 6 6 5 6 5 5 5 5 5 6 6 5 5 4 5 4 3 4 3 4 5 9 11 9 5 5 7 7 10 12 12 11 11 10 12 13 13
4 2 4 3 2 1 2 3 4 5 4 4 4 4 5 5 5 5 4 5 5 6 6 6 5 5 5 4 4 4 4 4 6 8 10 10 5 6 5 7 9 11 12 11 9 9 10 10 10
4 4 3 2 2 2 2 4 4 4 2 3 3 3 3 5 5 6 5 5 5 6 6 6 6 6 5 4 4 4 4 5 6 7 9 11 8 6 6 6 7 9 12 12 10 10 8 7 7
4 4 3 4 4 2 1 5 6 4 2 3 4 3 3 4 4 4 5 5 6 6 6 6 6 6 6 6 6 5 5 6 5 6 9 10 10 8 6 6 7 8 12 12 10 9 8 7 7
4 4 4 5 4 4 3 3 3 2 2 3 3 3 3 3 3 3 4 5 5 6 7 7 7 6 6 6 5 5 5 5 5 6 8 9 10 10 7 6 7 8 10 8 7 7 7 7 6
4 5 5 5 5 4 5 3 1 2 2 3 3 3 3 3 4 5 5 5 5 6 6 6 6 6 7 7 5 5 5 5 5 5 6 8 10 10 7 6 6 8 6 6 8 7 6 6 6
4 4 4 5 5 4 5 5 3 2 1 3 3 3 4 5 6 6 6 6 6 5 6 7 6 6 6 6 5 4 5 5 4 4 5 7 8 9 7 5 6 6 6 6 7 7 6 6 6
1 2 2 3 2 2 5 5 4 2 1 2 3 4 4 5 6 6 6 6 7 6 7 7 6 6 4 4 3 4 4 4 4 4 5 7 7 7 6 6 6 7 7 8 8 6 7 6 4
1 2 2 2 1 3 4 6 5 2 2 1 2 4 5 7 8 8 8 7 6 7 7 7 6 5 4 3 3 3 4 4 4 4 5 6 7 7 6 6 6 7 7 8 8 6 5 5 6
1 1 1 1 3 5 4 5 4 3 3 1 1 3 5 6 8 9 10 9 8 8 7 8 7 6 5 4 3 4 3 3 4 4 5 5 6 6 6 6 6 7 7 8 9 8 8 7 7
1 3 1 1 2 2 2 3 2 4 2 0 2 3 5 7 8 9 10 10 9 9 7 7 7 6 4 3 3 4 4 4 5 4 4 5 5 5 6 6 7 7 7 7 8 9 8 8 7
2 2 2 2 3 3 4 3 3 3 1 1 2 4 5 7 8 9 9 10 9 9 8 7 7 6 5 4 3 4 5 5 4 4 4 4 4 5 5 6 6 7 7 7 7 7 8 8 8
1 2 3 3 2 3 4 4 2 1 1 2 3 4 5 6 7 8 8 9 9 9 8 7 7 6 6 4 4 4 5 5 5 5 4 4 3 3 4 5 4 5 5 7 7 7 8 8 9
2 1 1 2 3 3 4 3 3 1 3 3 3 4 5 5 6 8 9 9 10 10 10 8 8 7 6 6 4 4 4 4 5 5 4 3 3 2 3 4 3 4 4 5 6 7 8 9 9
1 2 2 2 1 0 2 3 1 4 3 3 2 2 4 5 5 7 8 8 9 10 10 10 9 8 7 7 6 5 4 3 3 3 3 3 3 2 3 2 2 3 3 4 4 5 5 6 8
1 1 1 2 3 2 3 2 2 3 2 0 1 1 3 4 5 6 7 7 8 9 9 9 9 9 9 8 8 7 6 5 4 4 4 3 3 3 3 2 2 2 2 2 3 3 4 4 5
2 3 1 1 2 3 3 2 2 2 1 1 1 2 3 4 4 5 6 6 6 7 7 8 8 8 8 8 8 7 6 6 5 4 5 5 5 4 4 3 3 3 3 3 2 2 2 2 3
2 2 2 3 3 3 3 1 1 2 2 0 1 2 2 3 4 4 5 5 5 6 7 8 8 8 8 9 8 7 6 6 6 6 6 6 5 6 5 4 3 3 3 3 2 2 2 2 3
2 2 2 2 3 3 3 2 2 3 3 2 1 1 1 2 2 3 3 4 5 6 6 7 8 8 8 8 8 8 8 7 7 7 7 7 6 6 6 5 5 4 4 4 4 3 3 2 3
Wind_Direction
271 253 240 228 223 228 233 234 219 88 53 33 23 11 5 12 32 84 89 18 359 29 105 138 142 148 150 153 155 159 159 159 160 160 160 159 158 156 154 152 150 149 144 138 133 129 122 116 111
274 236 225 226 229 225 224 216 193 102 72 46 23 354 360 56 61 78 42 1 351 39 89 135 139 149 153 155 159 160 164 165 167 168 167 167 166 165 164 162 156 153 148 141 135 130 125 120 116
267 240 217 219 228 228 232 145 113 95 85 88 119 9 10 42 47 50 19 355 0 40 71 127 143 153 156 160 164 166 170 173 174 175 174 175 175 173 171 168 162 157 150 144 139 135 130 126 125
233 218 242 237 233 236 64 65 67 100 111 115 109 119 82 53 48 33 16 7 11 31 48 113 146 157 163 168 173 176 179 180 182 182 181 183 183 181 177 170 163 157 152 149 146 142 136 133 134
240 221 218 229 235 231 101 82 54 131 136 141 207 91 89 76 59 31 18 11 15 25 33 95 148 166 173 177 179 181 187 189 190 191 191 191 191 188 181 171 166 161 158 157 154 150 145 143 145
223 231 221 220 217 203 137 107 135 215 126 115 137 268 94 83 59 27 13 11 17 24 23 44 133 178 188 189 188 189 192 196 198 198 199 198 198 195 185 177 173 169 167 167 163 159 156 155 156
235 232 239 229 208 184 147 122 188 220 154 108 48 339 112 74 53 26 13 15 14 19 21 16 33 154 206 202 199 201 200 202 204 204 204 202 200 197 190 183 180 177 174 173 169 168 166 166 166
268 267 249 243 220 158 98 94 51 7 30 47 29 359 79 50 34 20 7 11 13 11 13 9 5 5 295 233 216 210 209 208 209 209 207 205 205 201 194 190 186 183 181 178 174 173 173 174 174
275 256 239 242 225 110 104 112 91 31 339 20 31 34 40 25 20 10 0 359 3 5 3 360 355 350 326 269 234 218 216 214 212 212 209 205 206 204 198 196 191 187 185 184 180 177 176 175 177
234 237 243 20 32 83 91 73 61 191 230 220 162 68 26 16 8 359 352 344 346 347 347 350 348 335 323 299 269 231 222 216 215 215 206 204 206 205 201 198 192 190 188 187 185 182 178 177 180
218 239 103 54 44 51 66 55 355 288 248 334 0 3 7 2 353 345 337 333 328 329 328 332 329 325 316 304 292 259 237 222 217 219 209 204 205 203 196 182 184 186 186 186 187 184 185 193 191
191 218 79 79 48 31 21 1 318 290 314 354 353 352 344 327 321 319 318 319 320 320 320 322 319 311 301 288 282 275 252 233 223 223 218 206 199 193 182 177 179 183 187 189 186 189 199 205 204
188 145 93 89 84 339 306 277 285 277 296 313 320 322 313 310 311 308 306 309 312 310 311 310 303 297 294 284 270 266 254 240 233 228 223 209 198 196 189 184 183 186 189 189 188 193 202 203 208
149 131 136 152 187 220 255 261 255 252 272 288 284 281 290 297 304 309 316 311 306 305 303 302 299 292 286 277 265 259 254 251 242 231 225 217 206 196 193 192 189 191 192 192 192 194 200 202 205
120 135 170 187 201 162 271 251 217 224 249 273 278 280 290 291 295 303 311 309 309 307 304 298 293 289 285 278 273 272 264 254 240 237 229 221 213 203 195 197 196 195 194 193 194 197 198 198 202
165 176 181 159 182 157 221 254 129 130 232 264 282 291 293 294 299 313 313 307 306 306 304 298 299 294 284 274 268 273 272 260 244 240 236 227 221 213 198 198 200 197 193 192 195 196 194 195 196
187 202 163 143 173 184 223 252 149 178 252 276 283 296 309 320 333 335 325 314 306 303 303 298 289 288 290 286 272 266 271 268 254 246 239 234 226 220 205 200 200 197 194 197 198 200 193 193 196
183 191 155 151 151 214 237 251 253 230 272 293 314 333 341 342 345 344 339 332 321 314 309 302 294 282 281 281 281 274 269 267 264 248 244 242 232 223 212 203 201 199 197 198 198 197 195 194 194
73 115 125 97 105 244 246 257 259 236 248 327 340 340 344 345 347 347 343 336 328 321 313 301 296 288 284 282 279 274 271 266 266 254 249 245 237 226 216 213 205 203 203 202 198 195 196 199 183
70 101 97 98 133 262 267 270 260 211 137 31 340 346 349 346 348 346 343 340 331 323 319 310 298 289 282 278 275 270 270 268 261 256 252 248 236 225 221 215 211 207 205 204 202 197 196 198 184
54 30 78 5 310 253 259 268 207 152 123 110 25 360 351 353 349 344 344 343 337 326 319 315 305 291 279 278 287 295 290 285 277 270 259 247 242 230 218 216 215 212 209 209 208 203 198 202 199
76 49 51 297 295 270 240 276 206 157 158 186 16 7 0 2 352 347 346 342 339 333 328 322 315 306 297 287 280 279 277 270 267 266 260 252 245 237 222 217 215 215 215 215 213 210 207 201 203
51 13 312 270 271 285 239 241 250 140 188 325 4 7 9 3 352 346 346 342 342 342 338 330 326 320 311 298 279 273 276 277 280 278 269 260 245 239 235 227 215 212 214 217 217 213 210 210 207
338 283 259 246 254 254 217 207 263 144 311 337 2 14 4 358 350 347 347 347 348 347 345 341 336 330 329 322 310 290 283 284 289 285 271 272 264 247 246 242 227 219 213 213 217 216 217 219 217
244 277 231 199 215 230 167 193 244 120 72 23 10 4 359 2 355 350 350 353 352 349 349 350 350 344 339 333 324 309 296 291 288 292 287 287 279 266 260 252 239 233 225 221 220 220 224 223 224
239 292 330 303 302 359 181 220 211 105 90 58 20 351 356 2 357 352 353 356 353 351 353 355 352 352 351 348 340 332 322 308 308 316 315 308 302 299 300 282 269 258 243 232 228 227 230 230 231
294 261 349 310 296 272 228 196 171 118 117 72 306 345 358 357 356 353 355 360 358 357 357 355 356 359 1 0 356 355 352 347 348 347 343 334 338 337 338 336 322 311 299 272 246 243 247 243 238
293 327 316 273 298 285 240 217 232 189 242 272 310 16 7 2 1 2 6 6 2 359 359 3 4 2 3 5 3 360 1 4 5 8 4 359 356 354 351 353 356 350 344 336 314 292 288 269 260
194 227 249 266 275 288 296 285 77 132 135 156 10 38 26 7 9 9 8 8 3 3 7 6 3 6 9 7 4 3 4 8 11 16 11 7 6 5 7 5 14 10 357 346 343 332 324 289 286
256 247 239 267 283 258 275 271 110 129 144 147 127 56 36 22 9 15 16 10 8 8 9 10 7 10 8 5 9 13 12 16 19 17 10 9 13 14 17 18 26 21 11 10 8 358 345 320 307
Height
1492 1495 1499 1503 1505 1505 1499 1487 1479 1482 1483 1487 1488 1490 1492 1495 1499 1511 1512 1509 1508 1508 1508 1509 1510 1511 1513 1515 1517 1519 1521 1523 1524 1526 1527 1529 1530 1531 1532 1533 1534 1535 1536 1537 1537 1538 1539 1540 1540
1491 1496 1501 1502 1502 1503 1493 1484 1481 1483 1487 1490 1492 1493 1494 1498 1502 1507 1508 1508 1508 1508 1508 1509 1510 1512 1514 1515 1517 1519 1521 1523 1525 1526 1528 1529 1530 1532 1533 1534 1535 1536 1537 1537 1538 1539 1540 1541 1541
1491 1496 1500 1498 1496 1493 1486 1478 1480 1485 1489 1492 1495 1496 1498 1502 1505 1507 1508 1508 1508 1508 1508 1509 1510 1512 1514 1516 1518 1520 1521 1523 1525 1526 1528 1529 1530 1532 1533 1534 1535 1536 1537 1538 1539 1540 1541 1542 1542
1493 1496 1497 1495 1491 1484 1481 1482 1483 1486 1491 1494 1496 1499 1501 1505 1506 1507 1507 1507 1507 1508 1508 1509 1510 1512 1513 1515 1517 1519 1521 1523 1524 1526 1527 1529 1530 1532 1533 1534 1535 1536 1537 1538 1539 1540 1541 1542 1543
1493 1494 1494 1493 1487 1482 1481 1484 1486 1488 1491 1495 1497 1499 1502 1505 1505 1506 1506 1507 1507 1508 1508 1509 1510 1511 1513 1515 1516 1518 1520 1522 1524 1525 1527 1528 1530 1531 1532 1534 1535 1536 1537 1538 1540 1541 1542 1543 1544
1492 1490 1492 1490 1484 1482 1483 1486 1489 1490 1492 1495 1498 1500 1504 1504 1504 1506 1506 1506 1507 1507 1508 1508 1509 1510 1512 1514 1515 1517 1519 1521 1522 1524 1526 1527 1529 1530 1532 1533 1534 1535 1537 1538 1539 1541 1542 1543 1544
1490 1488 1486 1481 1481 1482 1483 1487 1490 1491 1494 1497 1498 1500 1503 1504 1504 1505 1506 1506 1506 1507 1507 1508 1509 1510 1511 1512 1514 1516 1517 1519 1521 1522 1524 1526 1528 1529 1530 1532 1533 1535 1536 1538 1539 1540 1541 1543 1544
1488 1487 1482 1480 1479 1482 1485 1488 1491 1493 1495 1498 1499 1501 1503 1504 1504 1505 1505 1506 1506 1506 1507 1507 1508 1508 1509 1511 1512 1514 1515 1517 1519 1521 1522 1524 1526 1527 1529 1530 1532 1533 1535 1537 1538 1539 1541 1542 1543
1487 1490 1485 1480 1480 1484 1487 1490 1494 1496 1497 1499 1500 1502 1503 1504 1503 1504 1504 1504 1505 1505 1505 1506 1506 1507 1508 1509 1510 1512 1513 1515 1517 1518 1520 1522 1523 1525 1527 1528 1530 1532 1533 1535 1537 1538 1540 1541 1542
1487 1488 1484 1484 1483 1485 1489 1492 1495 1497 1498 1499 1501 1502 1502 1503 1503 1503 1503 1503 1503 1503 1504 1504 1505 1505 1506 1507 1508 1509 1511 1512 1514 1515 1517 1519 1521 1522 1524 1526 1528 1530 1531 1533 1535 1537 1538 1539 1541
1485 1485 1485 1487 1488 1489 1492 1495 1497 1497 1499 1500 1500 1501 1501 1502 1502 1502 1502 1502 1501 1501 1501 1502 1502 1503 1504 1504 1505 1506 1508 1509 1511 1513 1514 1516 1518 1520 1522 1523 1525 1527 1529 1531 1532 1534 1536 1537 1539
1485 1486 1487 1490 1492 1493 1495 1496 1498 1498 1499 1500 1500 1500 1501 1501 1501 1501 1500 1500 1499 1499 1499 1499 1499 1499 1500 1501 1502 1503 1504 1506 1508 1509 1511 1513 1515 1516 1518 1519 1521 1523 1525 1527 1529 1531 1533 1535 1537
1485 1488 1490 1493 1494 1496 1497 1498 1499 1498 1498 1499 1499 1500 1500 1500 1499 1499 1498 1498 1497 1496 1496 1496 1496 1496 1497 1497 1498 1499 1501 1502 1504 1506 1508 1509 1511 1513 1514 1516 1518 1520 1522 1524 1526 1528 1530 1532 1534
1486 1489 1492 1494 1495 1496 1497 1498 1498 1496 1497 1497 1498 1498 1498 1498 1498 1497 1496 1495 1494 1493 1493 1492 1492 1492 1493 1493 1494 1495 1497 1498 1500 1501 1503 1505 1507 1509 1510 1512 1514 1516 1518 1520 1522 1525 1527 1529 1531
1488 1491 1493 1494 1495 1496 1498 1497 1495 1495 1496 1496 1496 1496 1496 1496 1496 1495 1494 1493 1492 1491 1490 1489 1488 1488 1489 1489 1490 1491 1492 1494 1495 1497 1499 1500 1503 1505 1506 1508 1510 1512 1514 1517 1519 1521 1523 1526 1527
1489 1491 1494 1493 1494 1496 1501 1497 1492 1493 1494 1495 1495 1495 1494 1494 1493 1492 1491 1490 1489 1487 1486 1485 1485 1484 1484 1485 1485 1486 1487 1489 1490 1492 1494 1496 1498 1500 1502 1504 1506 1508 1510 1512 1514 1517 1519 1521 1523
1490 1491 1490 1493 1493 1494 1497 1495 1492 1492 1493 1493 1493 1493 1493 1492 1491 1490 1489 1487 1486 1484 1483 1482 1481 1480 1480 1480 1481 1481 1482 1484 1485 1487 1488 1491 1493 1495 1497 1499 1501 1503 1505 1507 1510 1512 1514 1516 1518
1490 1486 1487 1491 1492 1493 1494 1493 1491 1490 1491 1491 1491 1491 1491 1490 1489 1488 1486 1484 1482 1481 1479 1478 1477 1476 1476 1476 1476 1476 1477 1478 1480 1482 1483 1485 1488 1490 1492 1494 1496 1498 1500 1502 1505 1507 1509 1511 1514
1485 1485 1487 1490 1491 1493 1492 1491 1489 1488 1489 1490 1490 1490 1489 1489 1488 1486 1484 1481 1479 1477 1476 1474 1473 1472 1472 1471 1471 1471 1472 1473 1475 1476 1478 1480 1482 1484 1486 1488 1490 1493 1495 1497 1500 1502 1504 1506 1509
1487 1489 1491 1492 1492 1492 1491 1489 1486 1486 1487 1489 1489 1489 1489 1487 1486 1484 1481 1478 1476 1474 1472 1470 1469 1468 1468 1467 1467 1467 1468 1469 1470 1471 1472 1474 1476 1478 1480 1483 1485 1487 1489 1492 1494 1497 1499 1500 1503
1490 1492 1493 1494 1493 1491 1492 1489 1483 1484 1486 1488 1488 1488 1488 1486 1484 1482 1479 1476 1473 1471 1469 1467 1465 1464 1464 1464 1464 1464 1464 1464 1464 1465 1466 1468 1470 1472 1474 1476 1479 1481 1483 1485 1488 1491 1493 1495 1497
1494 1492 1493 1495 1497 1495 1492 1497 1484 1483 1485 1486 1487 1487 1486 1485 1483 1480 1477 1474 1471 1468 1466 1464 1462 1461 1460 1460 1460 1460 1459 1459 1459 1460 1462 1463 1464 1466 1468 1470 1472 1474 1477 1479 1482 1484 1487 1489 1491
1495 1494 1494 1495 1497 1498 1491 1496 1488 1482 1485 1485 1485 1486 1485 1483 1481 1478 1475 1472 1469 1466 1463 1461 1459 1458 1457 1457 1457 1456 1456 1456 1456 1457 1457 1458 1459 1460 1462 1464 1466 1468 1471 1473 1476 1478 1480 1482 1484
1495 1495 1495 1495 1497 1499 1489 1493 1490 1485 1484 1484 1484 1485 1484 1482 1480 1477 1474 1470 1467 1464 1461 1459 1457 1455 1454 1454 1453 1453 1453 1452 1452 1452 1452 1453 1454 1455 1457 1459 1461 1463 1465 1467 1470 1472 1474 1476 1478
1497 1499 1499 1499 1499 1493 1484 1489 1489 1483 1482 1483 1484 1484 1483 1481 1479 1475 1472 1469 1465 1462 1460 1457 1455 1453 1452 1451 1451 1450 1449 1449 1449 1448 1449 1449 1450 1450 1452 1454 1456 1458 1460 1462 1464 1466 1468 1470 1472
1495 1497 1501 1499 1494 1490 1486 1489 1485 1481 1482 1483 1484 1484 1482 1480 1478 1475 1472 1468 1465 1462 1459 1456 1454 1452 1451 1449 1448 1447 1447 1446 1445 1445 1445 1446 1446 1447 1448 1449 1450 1452 1455 1456 1458 1460 1462 1464 1465
1495 1495 1495 1499 1494 1495 1486 1482 1481 1481 1482 1483 1483 1482 1481 1480 1477 1474 1471 1467 1464 1461 1459 1456 1453 1451 1449 1448 1447 1445 1444 1443 1443 1442 1442 1442 1443 1443 1444 1445 1446 1448 1450 1451 1452 1454 1455 1457 1458
1497 1495 1498 1499 1497 1491 1483 1482 1484 1482 1482 1481 1481 1481 1480 1479 1476 1474 1471 1468 1465 1462 1459 1456 1453 1451 1449 1447 1446 1444 1442 1441 1440 1440 1439 1440 1440 1440 1441 1441 1442 1444 1445 1446 1448 1448 1449 1451 1452
1497 1496 1495 1495 1494 1496 1490 1488 1479 1479 1479 1480 1480 1480 1479 1478 1476 1474 1471 1468 1465 1462 1459 1457 1454 1451 1449 1447 1445 1443 1441 1440 1439 1438 1438 1438 1438 1438 1438 1438 1439 1440 1442 1443 1443 1444 1445 1446 1446
1492 1492 1494 1498 1494 1490 1493 1492 1478 1478 1478 1479 1479 1479 1479 1477 1476 1473 1471 1468 1466 1463 1460 1457 1454 1451 1449 1447 1445 1442 1440 1439 1438 1438 1437 1437 1437 1436 1436 1436 1437 1438 1438 1439 1439 1440 1440 1441 1441